sat.trackr.live / text

‹ back to catalog

STARLINK-6336

NORAD 56788 · 2023-078X

PAYLOAD ACTIVE UNKNOWN

§ Identity

Operator
Country
US
Launch date
2023-05-31
Launch site
AFWTR
Launch vehicle
Mass (kg)
RCS (m²)

Purposes: comms

External: N2YO · Heavens-Above · Gunter

§ Orbital elements

Epoch: 2026-09-20T22:00:03.000096Z

Period
95.58 min
Inclination
70.0004°
Eccentricity
0.0002153
Mean motion
15.06549994 rev/d
Perigee alt
545.3 km
Apogee alt
548.2 km
Semi-major
6,924.9 km
B*
2.9018e-4
RAAN
192.1315°
Arg perigee
269.3500°
Mean anomaly
277.3858°
Rev number
577

§ Raw data

STARLINK-63361 56788U 23078X   26263.91670139  .00004204  00000+0  29018-3 0  99912 56788  70.0004 192.1315 0002153 269.3500 277.3858 15.06549994  5776

JSON: /api/v1/satellites/56788 · /tle

For live sub-satellite position, see the globe view (requires WebGL).

§ Visibility from observer

Set your observer location to see the next 7 days of passes ≥ 10°. The values pass through the URL so the page stays shareable.

No JS? Fill the form by hand. The geolocation button needs JavaScript.